Starlink 32474

operational
NORAD ID: 61260 Int'l Des: 2024-175 Owner: SPXS Country: US Constellation: starlink
LEOCIRCULAR

Über Starlink 32474

Beschreibung wird geladen...

Live-Position

3D-Globus wird geladen...

Nächste Überflüge

Höhenverlauf

Altitude vs Time

uPlot chart will show altitude changes over time

Zweizeiliger Elementsatz

1 61260U 24175T 25259.35862316 .00001645 00000-0 67666-4 0 9992
2 61260 53.1580 283.7249 0001259 85.9066 274.2079 15.30199072 54765
Epoch: 16. Sept. 2025 • Age: 20 hours

Aktueller Status

Höhe 487.0 km
Geschwindigkeit 7.62 km/s
Subsatellitenpunkt -35.09°S, 69.1°E
Startdatum 25. Sept. 2024
Alter 0.9 years
Typ internet

Technische Details

Klassifizierung Payload
Masse 730.00 kg
Trockenmasse 700.00 kg
Gesamtmasse 730.00 kg
Länge 0.30 m
Durchmesser 4.10 m
Spannweite 29.00 m
Form Box + pan
Hersteller SPXS
Bus-Typ Starlink V2M
Phasenstatus In Orbit
Besitzer/Staat SPXS/US

Große Konstellationen

Loading constellations...